ROMMA est une association bénévole à but non lucratif. Votre soutien est indispensable : ADHERER à ROMMA ou FAIRE un DON

La Ferrière - (38, Isère)

Belledonne - Vallée du Haut Bréda (1000 m)   Longitude: 06° 04' 55" E   Latitude: 45° 18' 16" N Station romma n°33
 

Détail journalier du     <<     >>

Température Precipitation Humidité Pression Vent Dir Rafale Dir. rafale
Heure (°C) (mm) (%) (hPa) (km/h) (km/h)
01:00 2.909910161ESE5ESE
02:00 2.309910162ESE8ESE
03:00 1.809910162ESE4ESE
04:00 1.909910151ESE8ESE
05:00 1.2099101604ESE
06:00 1.5010010161ESE7ESE
07:00 1.209910161ESE4ESE
08:00 1.0010010161ESE2ESE
09:00 0.9010010161ESE3ESE
10:00 1.4010010161ESE5ESE
11:00 5.0010010153ESE8ESE
12:00 8.2010010163ESE7ESE
13:00 10.709810153ESE7ESE
14:00 12.709610154ESE7ESE
15:00 13.409110144ESE9ESE
16:00 13.008810147NNE10NNE
17:00 12.109010142N7N
18:00 8.709310144N8N
19:00 7.109510141N4N
20:00 6.309610142N4N
21:00 5.109610151N4N
22:00 4.209710151N5N
23:00 4.6097101502N
minuit 4.709810151N4N

Graphique du 16-10-2019

 

Serveur OMMA